QPF
0.00 0.00 0.00 0.00 0.00 0.00 0.00 0.00 0.00 0.00 0.00 0.00 0.00 0.00 0.00 0.00 0.00 0.00 0.00 0.00 0.00 0.00 0.00 0.01 0.01 0.01 0.01 0.02 0.02 0.02 0.03 0.03 0.04 0.05 0.05 0.06 0.06 0.06 0.04 0.04 0.04 0.05 0.06 0.06
0.00 0.00 0.00 0.00 0.00 0.00 0.00 0.00 0.00 0.00 0.00 0.00 0.00 0.00 0.00 0.01 0.01 0.01 0.01 0.00 0.00 0.00 0.01 0.01 0.01 0.01 0.01 0.02 0.03 0.03 0.03 0.03 0.03 0.04 0.05 0.06 0.06 0.07 0.05 0.04 0.04 0.04 0.04 0.05
0.00 0.00 0.00 0.00 0.00 0.00 0.00 0.00 0.00 0.00 0.00 0.00 0.01 0.01 0.02 0.01 0.02 0.02 0.02 0.01 0.01 0.01 0.01 0.01 0.01 0.01 0.01 0.01 0.03 0.03 0.03 0.03 0.03 0.04 0.04 0.05 0.06 0.06 0.06 0.05 0.06 0.05 0.05 0.05
0.00 0.00 0.00 0.00 0.00 0.00 0.01 0.00 0.00 0.00 0.01 0.01 0.01 0.01 0.02 0.02 0.02 0.04 0.04 0.03 0.01 0.01 0.01 0.01 0.01 0.01 0.01 0.01 0.02 0.04 0.03 0.03 0.03 0.04 0.04 0.05 0.05 0.05 0.06 0.07 0.07 0.07 0.05 0.05
0.01 0.01 0.01 0.01 0.01 0.01 0.01 0.00 0.00 0.00 0.00 0.01 0.01 0.01 0.01 0.00 0.01 0.01 0.02 0.03 0.03 0.02 0.02 0.01 0.01 0.01 0.01 0.02 0.02 0.04 0.03 0.02 0.02 0.03 0.03 0.05 0.04 0.05 0.06 0.08 0.08 0.07 0.06 0.05
0.01 0.00 0.00 0.00 0.00 0.00 0.00 0.00 0.00 0.00 0.01 0.01 0.01 0.01 0.01 0.01 0.01 0.01 0.01 0.02 0.03 0.03 0.03 0.02 0.02 0.01 0.02 0.03 0.02 0.04 0.04 0.02 0.02 0.02 0.02 0.04 0.04 0.04 0.04 0.06 0.08 0.09 0.07 0.06
0.01 0.01 0.00 0.00 0.00 0.00 0.00 0.00 0.01 0.01 0.02 0.02 0.01 0.01 0.01 0.01 0.01 0.01 0.02 0.01 0.02 0.03 0.03 0.03 0.02 0.02 0.02 0.03 0.04 0.04 0.04 0.02 0.01 0.01 0.01 0.02 0.03 0.03 0.03 0.04 0.07 0.09 0.10 0.08
0.01 0.01 0.00 0.00 0.00 0.00 0.00 0.01 0.01 0.01 0.01 0.01 0.01 0.01 0.01 0.00 0.00 0.01 0.01 0.01 0.01 0.01 0.02 0.02 0.02 0.02 0.03 0.03 0.04 0.05 0.04 0.02 0.01 0.01 0.01 0.01 0.02 0.02 0.03 0.03 0.04 0.07 0.09 0.10
0.01 0.01 0.00 0.00 0.00 0.00 0.01 0.01 0.01 0.01 0.01 0.01 0.01 0.01 0.00 0.00 0.00 0.00 0.00 0.00 0.00 0.01 0.01 0.02 0.02 0.03 0.04 0.04 0.04 0.06 0.05 0.02 0.01 0.01 0.01 0.01 0.01 0.01 0.02 0.02 0.03 0.05 0.07 0.09
0.01 0.01 0.00 0.00 0.00 0.01 0.01 0.01 0.01 0.02 0.02 0.01 0.01 0.01 0.01 0.00 0.00 0.00 0.00 0.00 0.00 0.00 0.01 0.01 0.02 0.03 0.04 0.06 0.06 0.06 0.06 0.04 0.02 0.01 0.01 0.01 0.02 0.02 0.02 0.03 0.03 0.04 0.05 0.08
0.01 0.02 0.01 0.00 0.00 0.01 0.01 0.01 0.01 0.01 0.01 0.01 0.01 0.01 0.01 0.00 0.00 0.00 0.00 0.00 0.00 0.00 0.01 0.01 0.01 0.02 0.04 0.06 0.07 0.06 0.06 0.05 0.03 0.02 0.02 0.02 0.02 0.02 0.03 0.04 0.05 0.04 0.05 0.05
0.01 0.02 0.01 0.01 0.00 0.00 0.00 0.01 0.01 0.01 0.01 0.01 0.01 0.01 0.01 0.00 0.00 0.01 0.00 0.00 0.00 0.01 0.01 0.01 0.02 0.03 0.04 0.05 0.06 0.07 0.07 0.05 0.04 0.02 0.02 0.02 0.02 0.02 0.03 0.04 0.05 0.05 0.05 0.05
0.02 0.02 0.02 0.01 0.01 0.00 0.01 0.01 0.01 0.01 0.02 0.01 0.01 0.01 0.00 0.00 0.00 0.00 0.00 0.00 0.00 0.01 0.01 0.01 0.02 0.03 0.04 0.04 0.05 0.05 0.06 0.06 0.05 0.04 0.03 0.03 0.03 0.03 0.03 0.04 0.05 0.06 0.05 0.05
0.02 0.02 0.01 0.01 0.01 0.01 0.00 0.00 0.01 0.02 0.03 0.02 0.01 0.01 0.00 0.00 0.00 0.00 0.00 0.00 0.01 0.01 0.01 0.02 0.02 0.03 0.03 0.03 0.04 0.04 0.04 0.05 0.05 0.04 0.04 0.04 0.04 0.04 0.04 0.04 0.04 0.04 0.05 0.05
0.02 0.02 0.01 0.00 0.00 0.00 0.00 0.00 0.01 0.02 0.02 0.02 0.01 0.01 0.01 0.01 0.01 0.00 0.00 0.00 0.00 0.01 0.01 0.02 0.02 0.02 0.03 0.03 0.03 0.03 0.02 0.03 0.04 0.04 0.03 0.03 0.04 0.05 0.05 0.05 0.05 0.06 0.05 0.05
0.02 0.02 0.01 0.01 0.00 0.00 0.00 0.00 0.00 0.01 0.01 0.01 0.01 0.01 0.01 0.01 0.01 0.00 0.00 0.00 0.00 0.01 0.01 0.01 0.02 0.02 0.02 0.03 0.03 0.03 0.03 0.03 0.03 0.04 0.03 0.03 0.03 0.03 0.04 0.04 0.04 0.06 0.06 0.06
0.02 0.02 0.02 0.02 0.01 0.01 0.01 0.00 0.00 0.00 0.00 0.01 0.01 0.01 0.01 0.01 0.01 0.01 0.00 0.00 0.00 0.00 0.01 0.01 0.01 0.02 0.02 0.03 0.03 0.03 0.03 0.04 0.03 0.03 0.02 0.02 0.02 0.03 0.03 0.03 0.03 0.03 0.04 0.04
0.02 0.02 0.02 0.02 0.01 0.02 0.01 0.00 0.00 0.00 0.00 0.00 0.00 0.00 0.01 0.00 0.01 0.01 0.00 0.00 0.00 0.00 0.00 0.01 0.01 0.01 0.02 0.02 0.03 0.03 0.03 0.04 0.04 0.03 0.02 0.02 0.02 0.02 0.03 0.03 0.03 0.03 0.02 0.02
0.01 0.02 0.03 0.03 0.02 0.01 0.00 0.00 0.00 0.00 0.00 0.00 0.00 0.00 0.00 0.00 0.00 0.00 0.00 0.00 0.00 0.00 0.00 0.00 0.00 0.01 0.01 0.01 0.02 0.02 0.02 0.03 0.03 0.03 0.03 0.03 0.03 0.02 0.02 0.03 0.03 0.03 0.03 0.03
0.01 0.02 0.03 0.03 0.02 0.01 0.00 0.00 0.00 0.00 0.01 0.00 0.00 0.00 0.00 0.00 0.01 0.00 0.00 0.00 0.00 0.00 0.00 0.00 0.00 0.00 0.00 0.00 0.01 0.01 0.02 0.02 0.02 0.03 0.03 0.03 0.03 0.03 0.03 0.03 0.03 0.03 0.03 0.03
0.01 0.02 0.02 0.02 0.02 0.02 0.01 0.00 0.00 0.01 0.01 0.00 0.00 0.00 0.00 0.00 0.00 0.00 0.00 0.00 0.00 0.00 0.00 0.00 0.00 0.00 0.00 0.00 0.00 0.01 0.01 0.01 0.02 0.02 0.02 0.02 0.02 0.02 0.03 0.03 0.03 0.03 0.04 0.04
0.01 0.02 0.02 0.02 0.03 0.02 0.01 0.01 0.01 0.01 0.01 0.00 0.01 0.00 0.00 0.00 0.00 0.00 0.00 0.00 0.00 0.00 0.00 0.00 0.00 0.00 0.00 0.00 0.00 0.00 0.00 0.00 0.01 0.01 0.01 0.01 0.02 0.02 0.03 0.03 0.03 0.03 0.03 0.04
0.01 0.01 0.01 0.01 0.02 0.02 0.01 0.01 0.01 0.01 0.01 0.01 0.01 0.00 0.00 0.00 0.00 0.00 0.00 0.00 0.00 0.00 0.00 0.00 0.00 0.00 0.00 0.00 0.00 0.00 0.00 0.00 0.00 0.00 0.00 0.01 0.01 0.01 0.02 0.02 0.03 0.03 0.03 0.03
0.01 0.01 0.01 0.01 0.01 0.01 0.01 0.01 0.01 0.01 0.01 0.00 0.00 0.00 0.00 0.00 0.00 0.00 0.00 0.00 0.00 0.00 0.00 0.00 0.00 0.00 0.00 0.00 0.00 0.00 0.00 0.00 0.00 0.00 0.00 0.00 0.01 0.01 0.01 0.01 0.02 0.02 0.03 0.04
0.01 0.01 0.01 0.01 0.01 0.01 0.01 0.00 0.00 0.00 0.00 0.00 0.00 0.00 0.00 0.00 0.00 0.00 0.00 0.00 0.00 0.00 0.00 0.00 0.00 0.00 0.00 0.00 0.00 0.00 0.00 0.00 0.01 0.00 0.00 0.00 0.00 0.01 0.01 0.01 0.02 0.03 0.04 0.05
0.01 0.01 0.02 0.02 0.01 0.01 0.01 0.01 0.00 0.00 0.00 0.00 0.00 0.00 0.00 0.00 0.00 0.00 0.00 0.00 0.00 0.00 0.00 0.00 0.00 0.00 0.00 0.00 0.01 0.01 0.01 0.01 0.01 0.01 0.01 0.01 0.01 0.01 0.01 0.01 0.01 0.01 0.02 0.03
MSLP
1017.57 1017.85 1018.21 1018.64 1019.11 1019.60 1020.05 1020.45 1020.78 1021.03 1021.19 1021.29 1021.34 1021.36 1021.39 1021.46 1021.58 1021.78 1022.07 1022.46 1022.95 1023.53 1024.17 1024.86 1025.56 1026.24 1026.85 1027.37 1027.77 1028.05 1028.20 1028.25 1028.21 1028.12 1028.01 1027.90 1027.79 1027.68 1027.55 1027.40 1027.21 1026.96 1026.67 1026.34
1018.48 1018.81 1019.20 1019.62 1020.03 1020.41 1020.74 1021.00 1021.18 1021.30 1021.37 1021.40 1021.41 1021.43 1021.47 1021.56 1021.70 1021.90 1022.18 1022.54 1022.97 1023.49 1024.07 1024.71 1025.36 1026.01 1026.62 1027.16 1027.60 1027.93 1028.15 1028.27 1028.30 1028.26 1028.18 1028.08 1027.96 1027.81 1027.63 1027.42 1027.16 1026.86 1026.52 1026.16
1019.46 1019.88 1020.32 1020.74 1021.10 1021.38 1021.57 1021.67 1021.68 1021.63 1021.55 1021.47 1021.42 1021.41 1021.46 1021.59 1021.77 1022.02 1022.33 1022.70 1023.12 1023.59 1024.11 1024.67 1025.25 1025.83 1026.39 1026.91 1027.36 1027.74 1028.02 1028.21 1028.32 1028.36 1028.33 1028.25 1028.12 1027.94 1027.71 1027.43 1027.10 1026.74 1026.35 1025.96
1020.38 1020.92 1021.44 1021.89 1022.24 1022.44 1022.50 1022.42 1022.24 1021.99 1021.73 1021.50 1021.34 1021.29 1021.34 1021.51 1021.77 1022.10 1022.48 1022.90 1023.34 1023.79 1024.25 1024.72 1025.19 1025.67 1026.15 1026.60 1027.03 1027.42 1027.75 1028.01 1028.20 1028.32 1028.36 1028.32 1028.20 1028.01 1027.75 1027.42 1027.04 1026.62 1026.19 1025.77
1021.14 1021.82 1022.46 1022.98 1023.34 1023.51 1023.47 1023.24 1022.86 1022.41 1021.94 1021.53 1021.24 1021.11 1021.14 1021.34 1021.68 1022.12 1022.60 1023.10 1023.59 1024.04 1024.45 1024.82 1025.18 1025.52 1025.87 1026.23 1026.59 1026.95 1027.30 1027.61 1027.87 1028.07 1028.19 1028.21 1028.14 1027.96 1027.69 1027.34 1026.94 1026.50 1026.05 1025.61
1021.65 1022.49 1023.27 1023.90 1024.34 1024.51 1024.42 1024.08 1023.54 1022.89 1022.22 1021.63 1021.18 1020.94 1020.93 1021.16 1021.56 1022.09 1022.68 1023.28 1023.82 1024.29 1024.66 1024.94 1025.17 1025.36 1025.56 1025.78 1026.04 1026.34 1026.66 1027.00 1027.32 1027.59 1027.78 1027.88 1027.87 1027.74 1027.51 1027.19 1026.79 1026.36 1025.91 1025.48
1021.87 1022.87 1023.81 1024.60 1025.15 1025.39 1025.31 1024.92 1024.27 1023.47 1022.62 1021.84 1021.24 1020.88 1020.80 1021.01 1021.45 1022.05 1022.73 1023.40 1024.00 1024.48 1024.82 1025.03 1025.13 1025.18 1025.21 1025.28 1025.42 1025.62 1025.90 1026.23 1026.57 1026.89 1027.15 1027.33 1027.40 1027.35 1027.18 1026.92 1026.58 1026.18 1025.77 1025.35
1021.82 1022.96 1024.07 1025.02 1025.73 1026.09 1026.09 1025.70 1025.01 1024.11 1023.13 1022.20 1021.44 1020.95 1020.78 1020.94 1021.37 1022.00 1022.73 1023.46 1024.10 1024.59 1024.90 1025.04 1025.03 1024.95 1024.84 1024.77 1024.77 1024.87 1025.07 1025.36 1025.70 1026.05 1026.36 1026.61 1026.76 1026.79 1026.71 1026.53 1026.27 1025.94 1025.58 1025.19
1021.55 1022.81 1024.05 1025.17 1026.04 1026.55 1026.67 1026.36 1025.68 1024.75 1023.68 1022.64 1021.76 1021.14 1020.86 1020.94 1021.32 1021.93 1022.66 1023.40 1024.05 1024.54 1024.84 1024.93 1024.85 1024.67 1024.45 1024.26 1024.15 1024.15 1024.27 1024.51 1024.81 1025.16 1025.50 1025.79 1026.00 1026.11 1026.12 1026.03 1025.85 1025.60 1025.30 1024.95
1021.15 1022.46 1023.80 1025.05 1026.06 1026.73 1026.97 1026.77 1026.15 1025.24 1024.16 1023.05 1022.08 1021.35 1020.96 1020.93 1021.23 1021.77 1022.45 1023.17 1023.81 1024.30 1024.58 1024.65 1024.55 1024.33 1024.05 1023.79 1023.60 1023.52 1023.57 1023.74 1024.00 1024.32 1024.64 1024.95 1025.19 1025.36 1025.44 1025.43 1025.33 1025.16 1024.91 1024.61
1020.72 1022.01 1023.38 1024.69 1025.79 1026.56 1026.92 1026.82 1026.29 1025.44 1024.37 1023.25 1022.23 1021.42 1020.93 1020.80 1020.99 1021.44 1022.05 1022.72 1023.33 1023.80 1024.09 1024.18 1024.09 1023.88 1023.61 1023.34 1023.13 1023.02 1023.02 1023.13 1023.34 1023.60 1023.89 1024.17 1024.42 1024.60 1024.72 1024.76 1024.72 1024.60 1024.40 1024.13
1020.35 1021.56 1022.87 1024.15 1025.25 1026.06 1026.47 1026.45 1026.00 1025.20 1024.18 1023.09 1022.05 1021.21 1020.65 1020.43 1020.53 1020.88 1021.41 1022.01 1022.59 1023.06 1023.37 1023.50 1023.48 1023.34 1023.13 1022.91 1022.74 1022.63 1022.62 1022.69 1022.84 1023.05 1023.28 1023.51 1023.72 1023.89 1024.01 1024.07 1024.05 1023.97 1023.80 1023.54
1020.11 1021.18 1022.35 1023.50 1024.52 1025.26 1025.65 1025.63 1025.22 1024.47 1023.51 1022.45 1021.45 1020.61 1020.03 1019.76 1019.78 1020.06 1020.52 1021.06 1021.61 1022.08 1022.43 1022.64 1022.72 1022.69 1022.60 1022.49 1022.39 1022.33 1022.34 1022.40 1022.51 1022.66 1022.82 1022.99 1023.14 1023.27 1023.35 1023.39 1023.38 1023.30 1023.13 1022.88
1020.07 1020.94 1021.90 1022.84 1023.66 1024.25 1024.52 1024.43 1023.99 1023.26 1022.35 1021.35 1020.40 1019.61 1019.05 1018.78 1018.78 1019.02 1019.43 1019.94 1020.47 1020.96 1021.36 1021.66 1021.86 1021.97 1022.02 1022.04 1022.05 1022.08 1022.14 1022.21 1022.30 1022.40 1022.50 1022.60 1022.68 1022.74 1022.78 1022.79 1022.74 1022.64 1022.47 1022.20
1020.22 1020.86 1021.57 1022.24 1022.79 1023.12 1023.19 1022.95 1022.43 1021.68 1020.79 1019.86 1019.00 1018.29 1017.81 1017.58 1017.60 1017.84 1018.25 1018.74 1019.28 1019.80 1020.26 1020.65 1020.96 1021.21 1021.41 1021.57 1021.71 1021.84 1021.95 1022.05 1022.14 1022.21 1022.27 1022.30 1022.33 1022.33 1022.32 1022.27 1022.19 1022.05 1021.85 1021.56
1020.53 1020.95 1021.37 1021.73 1021.95 1021.98 1021.78 1021.35 1020.69 1019.89 1019.01 1018.15 1017.39 1016.80 1016.43 1016.30 1016.39 1016.68 1017.11 1017.62 1018.17 1018.72 1019.23 1019.70 1020.11 1020.47 1020.80 1021.08 1021.34 1021.56 1021.74 1021.88 1021.98 1022.04 1022.07 1022.07 1022.05 1022.01 1021.95 1021.86 1021.74 1021.56 1021.32 1021.00
1020.91 1021.12 1021.27 1021.31 1021.20 1020.91 1020.42 1019.76 1018.96 1018.08 1017.21 1016.42 1015.77 1015.32 1015.09 1015.09 1015.29 1015.66 1016.14 1016.69 1017.26 1017.83 1018.38 1018.89 1019.37 1019.81 1020.22 1020.60 1020.94 1021.23 1021.47 1021.65 1021.77 1021.84 1021.86 1021.84 1021.80 1021.74 1021.66 1021.54 1021.39 1021.18 1020.90 1020.54
1021.21 1021.24 1021.15 1020.91 1020.50 1019.91 1019.17 1018.29 1017.35 1016.42 1015.56 1014.85 1014.32 1014.02 1013.95 1014.10 1014.43 1014.89 1015.43 1016.02 1016.62 1017.20 1017.75 1018.27 1018.77 1019.25 1019.70 1020.13 1020.51 1020.85 1021.12 1021.33 1021.47 1021.55 1021.59 1021.58 1021.55 1021.49 1021.41 1021.29 1021.12 1020.89 1020.58 1020.18
1021.27 1021.17 1020.90 1020.44 1019.80 1018.98 1018.03 1017.01 1015.98 1015.02 1014.20 1013.57 1013.18 1013.03 1013.12 1013.41 1013.86 1014.42 1015.02 1015.64 1016.24 1016.81 1017.35 1017.85 1018.34 1018.80 1019.25 1019.67 1020.06 1020.41 1020.69 1020.92 1021.08 1021.18 1021.23 1021.26 1021.25 1021.22 1021.16 1021.06 1020.90 1020.66 1020.33 1019.91
1020.94 1020.75 1020.36 1019.77 1018.99 1018.04 1016.99 1015.90 1014.85 1013.92 1013.17 1012.65 1012.39 1012.39 1012.62 1013.04 1013.59 1014.22 1014.86 1015.49 1016.08 1016.62 1017.12 1017.58 1018.02 1018.44 1018.85 1019.25 1019.61 1019.94 1020.21 1020.43 1020.60 1020.72 1020.80 1020.85 1020.88 1020.89 1020.87 1020.80 1020.66 1020.44 1020.12 1019.69
1020.13 1019.89 1019.45 1018.82 1018.00 1017.04 1015.99 1014.94 1013.95 1013.11 1012.48 1012.09 1011.97 1012.10 1012.44 1012.95 1013.57 1014.23 1014.89 1015.50 1016.06 1016.55 1016.99 1017.39 1017.77 1018.14 1018.49 1018.84 1019.16 1019.45 1019.70 1019.90 1020.07 1020.19 1020.29 1020.37 1020.44 1020.48 1020.51 1020.48 1020.38 1020.19 1019.89 1019.47
1018.84 1018.59 1018.17 1017.58 1016.83 1015.96 1015.02 1014.10 1013.26 1012.57 1012.09 1011.86 1011.86 1012.10 1012.53 1013.09 1013.73 1014.39 1015.02 1015.59 1016.09 1016.52 1016.90 1017.23 1017.55 1017.85 1018.15 1018.45 1018.72 1018.98 1019.19 1019.37 1019.52 1019.64 1019.74 1019.83 1019.92 1020.00 1020.06 1020.08 1020.02 1019.87 1019.61 1019.22
1017.19 1016.96 1016.61 1016.12 1015.52 1014.83 1014.10 1013.39 1012.77 1012.29 1011.99 1011.91 1012.04 1012.36 1012.83 1013.40 1014.02 1014.63 1015.20 1015.70 1016.12 1016.48 1016.79 1017.06 1017.32 1017.57 1017.83 1018.08 1018.32 1018.54 1018.72 1018.87 1019.00 1019.10 1019.19 1019.27 1019.37 1019.47 1019.55 1019.60 1019.58 1019.48 1019.26 1018.92
1015.37 1015.19 1014.94 1014.62 1014.22 1013.77 1013.30 1012.85 1012.48 1012.24 1012.14 1012.21 1012.44 1012.82 1013.30 1013.84 1014.40 1014.93 1015.40 1015.81 1016.14 1016.42 1016.66 1016.88 1017.09 1017.30 1017.53 1017.75 1017.97 1018.16 1018.32 1018.44 1018.53 1018.61 1018.67 1018.74 1018.82 1018.91 1018.99 1019.06 1019.07 1019.01 1018.85 1018.57
1013.68 1013.55 1013.42 1013.28 1013.10 1012.91 1012.71 1012.55 1012.44 1012.43 1012.52 1012.72 1013.04 1013.44 1013.90 1014.38 1014.84 1015.27 1015.63 1015.93 1016.16 1016.36 1016.53 1016.69 1016.87 1017.06 1017.26 1017.47 1017.67 1017.85 1017.99 1018.09 1018.15 1018.19 1018.22 1018.26 1018.30 1018.37 1018.44 1018.50 1018.53 1018.50 1018.39 1018.17
1012.37 1012.31 1012.29 1012.31 1012.34 1012.38 1012.44 1012.53 1012.66 1012.84 1013.09 1013.40 1013.77 1014.17 1014.59 1014.98 1015.34 1015.65 1015.89 1016.08 1016.21 1016.32 1016.43 1016.55 1016.69 1016.86 1017.05 1017.25 1017.44 1017.61 1017.74 1017.82 1017.86 1017.87 1017.86 1017.85 1017.86 1017.88 1017.92 1017.97 1017.99 1017.98 1017.90 1017.74
Thickness
5584 5573 5563 5563 5563 5564 5563 5561 5560 5564 5560 5553 5552 5554 5554 5551 5546 5542 5537 5533 5529 5525 5524 5523 5522 5522 5522 5523 5525 5526 5529 5531 5534 5535 5537 5539 5541 5543 5546 5549 5552 5554 5557 5559
5570 5557 5557 5558 5556 5554 5551 5549 5551 5552 5549 5544 5541 5542 5547 5543 5538 5534 5528 5523 5520 5516 5515 5513 5512 5511 5512 5513 5514 5516 5517 5520 5523 5524 5525 5527 5529 5531 5534 5537 5539 5542 5545 5547
5556 5549 5549 5547 5545 5543 5544 5538 5536 5531 5530 5533 5527 5533 5540 5539 5532 5525 5521 5517 5513 5510 5506 5504 5503 5502 5503 5504 5504 5507 5507 5509 5511 5513 5514 5515 5517 5520 5522 5524 5527 5530 5532 5535
5544 5543 5540 5537 5534 5530 5530 5528 5525 5520 5511 5513 5519 5513 5530 5528 5523 5518 5512 5507 5505 5502 5499 5496 5495 5494 5494 5494 5495 5496 5497 5498 5500 5501 5502 5503 5504 5506 5508 5511 5514 5517 5519 5522
5532 5529 5527 5526 5522 5517 5516 5515 5513 5510 5504 5501 5509 5501 5516 5519 5513 5509 5504 5499 5496 5494 5491 5487 5486 5485 5485 5485 5485 5486 5486 5487 5488 5489 5489 5490 5492 5493 5495 5499 5502 5504 5507 5509
5518 5517 5514 5512 5510 5509 5505 5505 5504 5500 5494 5490 5506 5499 5506 5503 5504 5500 5496 5492 5488 5486 5483 5479 5477 5476 5474 5474 5474 5475 5476 5476 5477 5478 5478 5479 5480 5481 5483 5486 5488 5491 5494 5496
5512 5507 5503 5500 5498 5498 5494 5489 5490 5489 5488 5497 5503 5493 5490 5494 5493 5490 5485 5481 5478 5475 5471 5468 5466 5465 5465 5464 5464 5464 5465 5465 5466 5467 5467 5468 5469 5470 5472 5473 5475 5478 5480 5482
5505 5501 5491 5487 5485 5481 5484 5484 5479 5477 5486 5491 5487 5481 5485 5484 5480 5478 5475 5471 5467 5464 5461 5459 5457 5456 5454 5454 5453 5452 5454 5454 5455 5455 5456 5457 5458 5458 5460 5462 5463 5465 5467 5469
5493 5490 5480 5477 5475 5473 5475 5471 5471 5464 5464 5461 5477 5482 5476 5475 5469 5465 5462 5458 5454 5452 5450 5448 5447 5445 5444 5443 5441 5441 5443 5444 5444 5445 5445 5446 5446 5447 5449 5450 5451 5453 5455 5457
5479 5470 5470 5464 5462 5459 5459 5462 5453 5451 5451 5460 5479 5481 5470 5459 5455 5453 5449 5444 5442 5441 5438 5437 5435 5434 5433 5431 5430 5430 5430 5431 5433 5434 5434 5435 5436 5437 5438 5439 5440 5441 5443 5444
5467 5456 5455 5450 5447 5451 5445 5444 5444 5446 5448 5446 5451 5461 5460 5455 5449 5442 5437 5434 5430 5429 5426 5424 5423 5422 5421 5420 5419 5419 5419 5420 5421 5422 5423 5424 5425 5426 5427 5428 5429 5430 5431 5433
5452 5447 5445 5447 5440 5437 5438 5438 5433 5429 5431 5433 5431 5442 5445 5443 5439 5433 5427 5423 5420 5417 5415 5413 5411 5410 5409 5408 5407 5406 5406 5407 5408 5409 5411 5412 5413 5414 5415 5416 5417 5419 5421 5423
5436 5434 5435 5441 5429 5419 5420 5424 5420 5416 5414 5418 5422 5434 5432 5427 5425 5421 5415 5411 5408 5406 5404 5402 5400 5398 5397 5396 5395 5394 5394 5394 5395 5397 5398 5400 5401 5402 5403 5404 5406 5408 5410 5412
5429 5422 5425 5434 5436 5418 5409 5410 5406 5401 5398 5406 5418 5425 5421 5418 5413 5410 5406 5401 5398 5396 5393 5390 5388 5386 5384 5383 5382 5381 5381 5382 5383 5384 5385 5387 5388 5389 5390 5392 5394 5396 5399 5401
5413 5411 5414 5417 5421 5417 5413 5409 5398 5392 5398 5398 5410 5410 5414 5408 5404 5400 5396 5392 5389 5386 5383 5379 5375 5373 5371 5370 5369 5369 5369 5370 5370 5371 5372 5373 5375 5376 5378 5381 5383 5385 5388 5390
5402 5400 5402 5401 5409 5408 5406 5406 5399 5391 5389 5389 5393 5395 5403 5398 5395 5390 5386 5383 5380 5375 5372 5368 5364 5361 5359 5357 5356 5356 5356 5357 5357 5358 5359 5360 5362 5364 5367 5370 5373 5375 5376 5377
5390 5386 5389 5397 5401 5397 5398 5402 5396 5391 5388 5384 5384 5390 5393 5388 5384 5380 5377 5373 5369 5365 5361 5356 5352 5348 5346 5345 5344 5344 5344 5345 5345 5346 5347 5348 5349 5352 5354 5359 5361 5362 5363 5365
5381 5376 5378 5382 5382 5382 5404 5398 5396 5388 5383 5380 5380 5381 5379 5376 5375 5371 5367 5362 5358 5353 5348 5344 5340 5337 5335 5334 5333 5333 5333 5333 5333 5334 5335 5336 5338 5340 5342 5346 5348 5350 5352 5353
5373 5369 5369 5369 5370 5384 5392 5387 5381 5375 5374 5376 5372 5371 5369 5367 5364 5361 5358 5352 5346 5341 5336 5333 5330 5327 5325 5323 5322 5321 5321 5320 5321 5322 5322 5324 5325 5327 5330 5333 5335 5337 5339 5341
5358 5356 5355 5359 5358 5368 5383 5373 5371 5367 5363 5369 5364 5360 5356 5353 5348 5351 5347 5341 5336 5331 5326 5322 5320 5317 5315 5313 5312 5310 5310 5309 5309 5310 5311 5312 5314 5316 5319 5321 5323 5325 5327 5329
5343 5340 5341 5346 5348 5360 5364 5356 5356 5353 5360 5357 5353 5349 5345 5340 5338 5337 5334 5330 5325 5321 5317 5314 5310 5307 5305 5304 5301 5300 5299 5298 5298 5299 5300 5302 5303 5304 5307 5310 5312 5313 5315 5317
5343 5336 5335 5338 5338 5352 5348 5343 5342 5345 5346 5343 5341 5338 5333 5329 5327 5324 5321 5318 5315 5311 5308 5305 5301 5298 5296 5294 5291 5289 5288 5288 5289 5289 5290 5292 5292 5294 5297 5298 5300 5302 5303 5306
5342 5343 5341 5339 5347 5349 5339 5337 5336 5334 5332 5331 5329 5326 5323 5318 5316 5314 5310 5307 5304 5301 5298 5295 5291 5288 5286 5283 5281 5279 5279 5278 5278 5279 5280 5280 5282 5283 5285 5286 5288 5289 5291 5293
5337 5336 5336 5333 5339 5340 5334 5331 5328 5325 5322 5321 5318 5316 5313 5308 5306 5302 5299 5297 5294 5292 5288 5285 5281 5278 5276 5273 5271 5268 5268 5268 5268 5269 5270 5270 5271 5272 5273 5275 5276 5278 5280 5281
5332 5321 5322 5321 5326 5328 5328 5323 5321 5318 5315 5311 5309 5306 5303 5299 5296 5293 5290 5287 5284 5282 5278 5275 5271 5269 5267 5264 5262 5261 5259 5259 5258 5259 5260 5260 5261 5261 5262 5264 5264 5266 5268 5269
5321 5313 5311 5320 5321 5316 5318 5316 5313 5309 5307 5303 5301 5298 5294 5291 5287 5284 5280 5278 5275 5272 5268 5265 5262 5260 5258 5255 5253 5252 5251 5250 5249 5249 5250 5250 5250 5251 5252 5253 5255 5257 5258 5260